Location: Poughquag
(41.6090°N, 73.6820°W)
Time: 01:56:22
(UTC-04:00)

Vanguard 1 - Pass Details

Date: 03 June 2020
Orbit: 650 x 3833 km, 34.2° (Epoch: 06 July)

Event Time Altitude Azimuth Distance (km) Brightness Sun altitude
Rises 11:34:03 0° 283° (WNW) 7,585 14.4 64.7°
Reaches altitude 10° 11:39:18 10° 278° (W) 6,770 14.2 65.4°
Maximum altitude 12:00:10 44° 216° (SW) 4,547 14.3 67.8°
Drops below altitude 10° 12:17:35 10° 152° (SSE) 5,690 14.4 69.4°
Sets 12:21:35 0° 145° (SE) 6,335 14.5 69.7°
